Volver al catálogo

CZ-6A DEB

ActivoSSO
NORAD 57576·DEBRIS·🇨🇳 China

Lanzado Nov 11, 2022 desde Taiyuan Satellite Launch Center

Loading…

Próximos Pases (próximas 24 horas)

TLE

ActualizadoSource: Space-Track

Época: Sep 13, 2026, 23:10 UTC

1 57576U 22151AHT 26256.96592813  .00001384  00000-0  68655-3 0  9994
2 57576  98.8240 264.1724 0040359  58.0855 302.4236 14.18396922176077

Sigue CZ-6A DEB en tiempo real con AllMySat

Download on the App Store